Location: Brno
(49.2000°N, 16.6330°E)
Time: 01:02:36
(UTC+02:00)

X-37B - Pass Details

Date: 22 June 2021
Orbit: 383 x 392 km, 45.0° (Epoch: 01 July)

Event Time Altitude Azimuth Distance (km) Brightness Sun altitude
Exits shadow 03:43:00 - 249° (WSW) 1,488 3.0 -8.4°
Reaches altitude 10° 03:43:19 10° 244° (WSW) 1,404 2.9 -8.3°
Maximum altitude 03:45:15 15° 207° (SSW) 1,133 2.3 -8.1°
Drops below altitude 10° 03:47:12 10° 169° (SSE) 1,402 3.0 -7.9°
Sets 03:49:50 0° 145° (SE) 2,255 4.3 -7.7°
